Location: Isle of Man Observatory
(54.1776°N, 4.6264°W)
Time: 07:51:02
(UTC+02:00)

Envisat - Pass Details

Date: 18 May 2026
Orbit: 761 x 763 km, 98.4° (Epoch: 11 June)

Event Time Altitude Azimuth Distance (km) Brightness Sun altitude
Rises 03:56:45 0° 23° (NNE) 3,238 8.3 -13.1°
Reaches altitude 10° 03:59:31 10° 37° (NE) 2,306 6.9 -13.0°
Maximum altitude 04:03:35 24° 91° (E) 1,555 4.9 -12.7°
Drops below altitude 10° 04:07:37 10° 144° (SE) 2,292 5.2 -12.4°
Enters shadow 04:09:43 - 156° (SSE) 2,993 5.7 -12.3°
